Location: Newark
(31.5350°N, 35.0986°E)
Time: 04:16:53
(UTC+00:00)

Explorer 11/Cluster Stage 4 - Visible Passes

Search period start: 16 September 2019 00:00
Search period end: 26 September 2019 00:00
Orbit: 467 x 1260 km, 28.8° (Epoch: 15 September)

Date Brightness Start Highest point End Pass type
(mag) Time Alt. Az. Time Alt. Az. Time Alt. Az.
16 Sep 6.6 01:56:33 30° S 01:56:33 30° S 01:59:46 10° SE visible
17 Sep 7.3 01:46:58 22° SSE 01:46:58 22° SSE 01:49:00 10° SE visible
18 Sep 8.0 01:37:27 14° SSE 01:37:27 14° SSE 01:38:12 10° SE visible
19 Sep 9.2 17:57:16 10° SSW 17:57:43 11° SSW 17:57:43 11° SSW visible
20 Sep 8.7 17:45:46 10° SSW 17:48:16 18° S 17:48:16 18° S visible
21 Sep 8.3 17:34:24 10° SSW 17:38:46 25° S 17:38:46 25° S visible
22 Sep 7.9 17:23:06 10° SW 17:29:12 31° SSE 17:29:12 31° SSE visible
23 Sep 7.7 17:11:54 10° SW 17:18:41 36° SSE 17:19:34 35° SE visible
23 Sep 9.3 19:00:41 10° WSW 19:01:44 14° WSW 19:01:44 14° WSW visible
24 Sep 7.7 17:00:45 10° SW 17:07:54 41° SSE 17:09:50 34° SE visible
24 Sep 9.0 18:49:44 10° WSW 18:52:00 21° WSW 18:52:00 21° WSW visible
25 Sep 7.7 16:49:39 10° SW 16:57:07 46° SSE 17:00:02 31° ESE visible
25 Sep 8.7 18:38:48 10° WSW 18:42:12 28° WSW 18:42:12 28° WSW visible
